Location: Henry Coe State Park
(37.1875°N, 121.5503°W)
Time: 19:59:10
(UTC-07:00)

Daily predictions for brighter satellites

Satellite Brightness Start Highest point End
(mag) Time Altitude Azimuth Time Altitude Azimuth Time Altitude Azimuth
Cosmos 1302 Rocket 4.2 20:39:25 10° N 20:44:36 57° ENE 20:49:46 10° SSE
Cosmos 1603 3.8 20:40:30 10° S 20:45:57 54° ESE 20:51:24 10° NNE
ALOS 2.3 20:41:39 10° SSE 20:46:19 77° ENE 20:50:59 10° N
PSLV R/B 3.9 20:45:26 10° W 20:48:55 61° NNW 20:52:26 10° ENE
ATLAS 3B R/B 3.7 20:44:41 10° SSE 20:51:00 29° ESE 20:57:16 10° NE
FENGYUN 3A 3.7 20:46:39 10° SSE 20:52:01 83° ENE 20:57:26 10° N
Meteor 2-9 Rocket 4.4 20:46:36 10° N 20:52:18 64° E 20:58:05 10° SSE
GEOS 3 Rocket 4.0 20:48:49 10° SE 20:53:57 55° NE 20:59:03 10° NNW
Lacrosse 5 rocket 4.4 20:52:36 10° WNW 20:54:27 13° NNW 20:56:20 10° N
Meteor 1-23 Rocket 4.4 20:48:59 10° S 20:54:38 86° W 21:00:24 10° N
Cosmos 1939 Rocket 4.1 20:51:15 10° SE 20:54:44 27° ENE 20:58:14 10° NNE
Cosmos 1726 Rocket 4.0 20:50:31 10° NNW 20:54:55 67° W 20:59:16 10° S
USA 186 1.5 20:53:06 10° S 20:55:54 73° W 20:58:32 10° NNW
ERS-1 Rocket 3.1 20:58:20 10° SSE 21:03:16 61° ENE 21:08:14 10° N
SPOT 5 3.9 21:02:15 10° ESE 21:05:46 25° ENE 21:09:17 10° NNE
Meteor 2-4 Rocket 4.3 21:00:11 10° SSW 21:06:01 68° W 21:11:57 10° N
H-2A R/B 3.3 21:02:44 10° S 21:06:39 64° W 21:10:35 10° NNW
CZ-4 DEB 3.6 21:03:49 10° S 21:06:57 52° W 21:10:07 10° NNW
Cosmos 1943 3.9 21:02:25 10° SSE 21:07:22 32° ESE 21:12:21 10° NE
Cosmos 1602 Rocket 3.5 21:09:45 10° S 21:14:13 76° E 21:18:41 10° N
Envisat 3.6 21:11:37 11° SE 21:16:04 42° ENE 21:20:51 10° N
Cosmos 2058 Rocket 4.0 21:12:41 10° NNW 21:16:54 48° W 21:21:05 10° SSW
COSMOS 2455 2.8 21:13:42 10° SSW 21:19:41 79° ESE 21:25:43 10° NNE
Cosmos 1812 Rocket 3.7 21:23:04 10° N 21:27:25 59° E 21:30:57 15° SSE
Tsikada Rocket 4.0 21:24:52 10° S 21:31:17 85° E 21:37:41 10° N
CZ-2C R/B 2.6 21:34:37 10° SSW 21:36:33 24° W 21:38:30 10° NW
H-2A R/B 2.3 21:33:36 10° S 21:37:45 67° WSW 21:42:06 10° NNW
deb Chang Zheng 4 4.3 21:33:45 10° N 21:38:03 56° WNW 21:42:18 10° SSW
ARGOS 4.3 21:37:08 17° ESE 21:40:06 28° ENE 21:44:39 10° N
BREEZE-M DEB (TANK) 2.4 21:38:41 10° WNW 21:40:53 42° SW 21:41:35 30° S
Cosmos 1666 4.3 21:39:03 10° NNW 21:42:36 33° W 21:46:07 10° SSW
Lacrosse 4 Rocket 1.3 21:45:23 10° S 21:49:19 56° ESE 21:53:19 10° NE
Milstar 3 Cent rocket 4.1 21:45:36 10° WSW 21:50:24 17° SW 21:53:18 12° S
MetOp-B 4.3 21:47:41 22° SSE 21:51:05 61° ENE 21:56:22 10° N
Cosmos 1992 Rocket 4.0 21:47:20 10° NNW 21:52:34 71° ENE 21:55:35 25° SSE
Cosmos 2369 Rocket 2.5 21:47:10 10° NNW 21:52:43 53° ENE 21:55:44 26° SE
USA 81 4.2 21:50:20 10° N 21:55:34 58° E 21:58:27 26° SSE
UNK 4.2 21:53:31 10° NNE 21:59:03 83° ESE 22:04:52 10° SSW
SeaSat 1 2.5 21:58:17 28° SE 22:00:50 68° ENE 22:05:46 10° NNW
Meteor 2-12 Rocket 4.5 21:57:01 10° N 22:03:07 81° W 22:07:41 18° S
YAOGAN 6 2.8 22:03:34 41° SE 22:04:35 57° ENE 22:08:16 10° N
Cosmos 1953 Rocket 3.5 22:03:42 30° SSE 22:05:42 63° E 22:10:06 10° NNE
Cosmos 1634 Rocket 3.9 22:01:07 10° N 22:07:18 73° E 22:10:53 27° SSE
ISS -0.2 22:10:21 10° WNW 22:12:40 18° NNW 22:14:59 10° NNE
Cosmos 1190 Rocket 4.1 22:09:06 10° SSW 22:14:24 78° WNW 22:19:45 10° NNE
Cosmos-2242 4.3 22:11:05 10° NNE 22:14:46 26° ENE 22:15:08 25° E
Cosmos 489 Rocket 4.4 22:09:20 10° SSW 22:15:39 79° ESE 22:22:02 10° NNE
CZ-4B R/B 3.5 22:11:10 10° NNE 22:16:19 83° WNW 22:20:35 16° SSW
CZ-4C R/B 4.1 22:17:02 36° E 22:17:40 38° ENE 22:21:27 10° N
H-2A R/B 3.1 22:16:38 25° E 22:17:52 28° ENE 22:22:09 10° N
Cosmos 2263 4.2 22:18:13 10° NNW 22:23:50 70° ENE 22:25:53 40° SE
SL-23 DEB 4.4 22:18:45 10° SW 22:25:48 84° NW 22:29:49 10° NE
SPOT 1/Viking Rocket 3.5 22:24:35 37° SSE 22:26:43 87° WSW 22:31:54 10° NNW
PSLV R/B 4.4 22:23:27 10° WNW 22:26:51 43° N 22:28:07 30° NE
Cosmos 2279 Rocket 4.1 22:21:57 10° N 22:28:08 61° E 22:30:28 38° SE
Cosmos 1140 Rocket 4.0 22:27:53 38° ESE 22:28:09 38° E 22:32:58 10° NE
Atlas Centaur 2 3.1 22:20:55 10° WSW 22:28:10 52° S 22:31:51 32° SE
COSMOS 2406 3.7 22:27:46 37° ESE 22:28:21 38° ESE 22:33:36 10° NE
DEBRIS 4.1 22:26:09 10° WNW 22:28:16 20° WSW 22:28:16 20° WSW
Cosmos 1607 4.4 22:29:44 37° SE 22:30:20 37° ESE 22:36:00 10° NE
Cosmos 676 Rocket 3.9 22:28:14 24° SSW 22:31:29 88° ESE 22:36:51 10° NNE
Cosmos 1932 4.3 22:26:40 17° SSW 22:31:31 68° ESE 22:37:42 10° NE
Landsat 7 4.1 22:32:56 46° ESE 22:33:48 52° ENE 22:38:25 10° N
Cosmos 1953 3.3 22:32:17 10° NNE 22:35:29 32° ENE 22:35:29 32° ENE
CZ-4 R/B 4.0 22:32:02 10° N 22:37:03 76° WNW 22:39:41 29° SSW
Meteor 1-22 Rocket 4.3 22:33:50 10° NNW 22:39:29 75° W 22:41:55 36° S
Cosmos 1758 Rocket 3.8 22:37:55 37° SSW 22:39:30 64° W 22:43:51 10° N
ATLAS 3B R/B 3.5 22:33:45 10° SW 22:41:20 60° NW 22:48:48 10° NNE
CARTOSAT-1 4.0 22:42:24 44° ENE 22:42:30 44° ENE 22:46:37 10° N
SPOT 5 4.4 22:41:29 17° SW 22:43:45 25° W 22:47:21 10° NW
Cosmos 1346 Rocket 4.2 22:45:27 23° SW 22:47:13 35° WNW 22:50:51 10° N
Cosmos 1943 Rocket 2.3 22:43:56 10° NNW 22:49:27 61° ENE 22:50:34 50° ESE
Terra 2.0 22:49:14 51° E 22:49:37 52° ENE 22:54:14 10° N
SL-27 R/B 3.5 22:53:31 39° N 22:53:31 39° N 22:55:46 10° NNE
Cosmos 2180 Rocket 4.4 22:46:36 10° N 22:52:55 81° E 22:54:49 48° SSE
DMSP B5D2-2 4.1 22:47:56 10° NNE 22:53:09 59° E 22:53:33 57° ESE
DELTA 2 DEB (DPAF) 4.1 22:54:15 68° SSW 22:54:42 76° WSW 22:59:13 10° NNW
Cosmos 1842 3.4 22:55:37 70° WNW 22:55:37 70° WNW 22:59:27 10° N
USA 234 3.2 22:53:50 43° SE 22:56:15 83° NE 23:02:51 10° NW
Cosmos 1842 Rocket 4.1 23:08:17 10° N 23:11:57 51° NE 23:11:57 51° NE
IGS 5A 3.8 23:18:28 63° NNW 23:18:28 63° NNW 23:22:01 10° NNW
ARGOS 4.3 23:18:40 29° SW 23:20:09 35° W 23:25:05 10° NNW
Cosmos 1758 4.0 23:19:10 10° NNW 23:22:34 53° NW 23:22:34 53° NW
USA 238 DEB 4.0 23:17:27 12° SW 23:24:03 69° NW 23:31:07 10° NNE
USA 238 4.0 23:17:43 13° SW 23:24:09 69° NW 23:31:13 10° NNE
Lacrosse 4 Rocket 4.4 23:26:37 10° WNW 23:28:24 13° NW 23:30:12 10° NNW
Cosmos 2208 Rocket 3.9 23:24:05 10° NNW 23:29:08 83° NNE 23:29:08 83° NNE
Cosmos 2084 4.1 23:25:40 10° NW 23:28:52 52° NW 23:28:52 52° NW
Cosmos 1092 Rocket 3.9 23:31:43 69° S 23:32:33 86° E 23:38:52 10° N
Cosmos 2369 Rocket 4.1 23:32:26 10° WNW 23:36:12 19° W 23:37:33 17° WSW
Meteor 2-5 Rocket 3.8 23:36:44 69° E 23:36:44 69° E 23:42:24 10° NNE
Nadezhda 4 Rocket 4.4 23:40:24 46° SW 23:42:00 59° W 23:48:15 10° N
Cosmos 1340 4.5 23:44:17 29° N 23:44:17 29° N 23:46:15 10° N
Cosmos 1741 Rocket 4.4 23:41:50 52° W 23:42:29 56° WNW 23:47:43 10° N
Cosmos 1470 4.3 23:45:09 10° N 23:47:24 33° N 23:47:24 33° N
Cosmos 2221 3.9 23:45:30 10° N 23:48:11 32° NNE 23:48:11 32° NNE
